Location: Kosice
(48.7170°N, 21.2500°E)
Time: 02:57:58
(UTC+02:00)

ISS - Pass Details

Date: 30 March 2019
Orbit: 408 x 410 km, 51.6° (Epoch: 21 April)

Event Time Altitude Azimuth Distance (km) Brightness Sun altitude
Rises 20:52:00 0° 290° (WNW) 2,339 1.1 -26.0°
Reaches altitude 10° 20:54:05 10° 290° (WNW) 1,475 -0.1 -26.3°
Enters shadow 20:55:26 22° 289° (WNW) 939 -1.4 -26.5°
